Location: Jetmore Oil Field
(38.1181°N, 99.9337°W)
Time: 00:29:04
(UTC+00:00)

STARLINK-2758 - Visible Passes

Search period start: 24 October 2021 00:00
Search period end: 03 November 2021 00:00
Orbit: 546 x 548 km, 53.1° (Epoch: 23 October)

Date Brightness Start Highest point End Pass type
(mag) Time Alt. Az. Time Alt. Az. Time Alt. Az.
24 Oct 5.1 11:53:17 10° SSW 11:57:06 38° SE 12:00:56 10° ENE visible
25 Oct 4.3 11:46:43 10° SSW 11:50:43 53° SE 11:54:44 10° ENE visible
26 Oct 3.7 11:41:03 15° SW 11:44:21 74° SE 11:48:28 10° NE visible
27 Oct 6.8 10:00:20 11° ESE 10:00:20 11° ESE 10:00:40 10° E visible
27 Oct 3.5 11:35:59 29° SW 11:38:00 81° NW 11:42:08 10° NE visible
28 Oct 6.9 09:55:02 11° E 09:55:02 11° E 09:55:13 10° E visible
28 Oct 3.6 11:30:40 45° W 11:31:38 60° NW 11:35:44 10° NE visible
29 Oct 3.9 11:25:10 45° NW 11:25:18 45° NW 11:29:17 10° NE visible
30 Oct 4.5 11:19:30 34° NNW 11:19:30 34° NNW 11:22:47 10° NE visible
31 Oct 5.1 11:13:42 25° N 11:13:42 25° N 11:16:16 10° NNE visible
01 Nov 5.6 11:07:48 19° N 11:07:48 19° N 11:09:41 10° NNE visible
02 Nov 5.9 11:01:49 15° N 11:01:49 15° N 11:03:05 10° NNE visible
